COSMOS 2251 DEB, 35462

Orbit data source: Space-Track

COSMOS 2251 DEB, 35462 is space debris in LEO originally from a launch on Wed, 16 Jun 1993 UTC launched from the Plesetsk Missile And Space Complex (PKMTR). The debris from Iridium 33, an American commercial communications satellite, has been tracked extensively since its accidental collision with the defunct Russian satellite Cosmos 2251 in 2009. This event, occurring at high speed in low Earth orbit (LEO), generated thousands of pieces of space debris, significantly increasing the risk of further collisions. The Iridium 33 debris cloud has impacted space traffic management and orbital debris mitigation strategies, making it a subject of ongoing study in space situational awareness.

Loading next visibility...
Identifier
35462, 1993-036ALG
Orbit
LEO
Country
Flag of CISCIS
Related business
Manufacturer
Unknown
Mission
Spacecraft
Bus & Motor
Unknown
Mass
Unknown
Launch date (UTC)
1993-06-16 (33 years ago)
Launch vehicle
Unknown
Launch site
Plesetsk Missile And Space Complex (PKMTR)
Object type
Payload
Rocket body
Debris
Shape & HBR
Unknown shape, 0.1 m
Radar Cross Section
Small (<0.1 m²)

Expand to show TLE details & history
Last TLE update: 1 day ago

TLE from 1 day ago
0 COSMOS 2251 DEB
1 35462U 93036ALG 26121.42151328  .00003839  00000-0  14297-2 0  9997
2 35462  74.0376  14.7444 0082887  17.2713 343.1226 14.30453498683770
Epoch: 2026-05-01T10:06Z
TLE epoch observation values (Epoch: 2026-05-01T10:06:58.747Z)
Latitude
0.00002°
Longitude
3.64562°
Altitude
735.995 km
Speed
7.517 km/s
True Right ascension
00h 58m 58s
True Declination
0° 00' 00"
Sunlit
Object was in daylight at epoch
Visualization orbit readout
Latitude
Unknown
Longitude
Unknown
Altitude
Unknown
Speed
Unknown
Apparent Right ascension
Unknown
Apparent Declination
Unknown
Sunlit
N/A
Visualization observer readout
Local Sidereal Time
21:46:21
Azimuth
Unknown
Elevation
Unknown
Doppler factor
Unknown
Orbital elements
Apogee altitude
847.242 km
Perigee altitude
728.448 km
Semi-major axis
7,165.982 km
Eccentricity
0.00829
Inclination
74.0376°
RAAN
14.7444°
Arg. of periapsis
17.2713°
True anomaly
342.84409°
Mean anomaly
343.1226°
Eccentric anomaly
342.98362°
Mean motion
3.57791 °/min
Orbital period
100.62 mins
BSTAR
0.0014297
Loading maneuver chart data...
Computing Atmospheric mass density...
Loading historical data...
Loading historical data...
Loading historical data...
Loading historical data...
Loading historical data...
Loading historical data...
Loading historical data...

Documentation

Showing up to 5 results
|